Location: Bremen
(53.0793°N, 8.8017°E)
Time: 15:26:52
(UTC+01:00)

ESTCUBE 1 - Visible Passes

Search period start: 14 February 2026 00:00
Search period end: 24 February 2026 00:00
Orbit: 620 x 633 km, 97.7° (Epoch: 13 February)

Date Brightness Start Highest point End Pass type
(mag) Time Alt. Az. Time Alt. Az. Time Alt. Az.
14 Feb ? 20:10:19 19° NNE 20:10:19 19° NNE 20:11:48 10° N visible
14 Feb ? 21:47:36 13° NNW 21:47:36 13° NNW 21:48:12 10° NNW visible
15 Feb ? 20:29:35 21° N 20:29:35 21° N 20:31:11 10° N visible
15 Feb ? 22:06:52 11° NW 22:06:52 11° NW 22:07:07 10° NW visible
16 Feb ? 19:11:32 12° NE 19:11:32 12° NE 19:12:23 10° NNE visible
16 Feb ? 20:48:50 22° N 20:48:50 22° N 20:50:28 10° N visible
17 Feb ? 19:30:48 15° NE 19:30:48 15° NE 19:32:21 10° NNE visible
17 Feb ? 21:08:04 22° NNW 21:08:04 22° NNW 21:09:41 10° NNW visible
18 Feb ? 19:50:02 19° NNE 19:50:02 19° NNE 19:51:58 10° N visible
18 Feb ? 21:27:19 21° NNW 21:27:19 21° NNW 21:28:48 10° NNW visible
19 Feb ? 20:09:16 24° NNE 20:09:16 24° NNE 20:11:25 10° N visible
19 Feb ? 21:46:33 18° NW 21:46:33 18° NW 21:47:50 10° NNW visible
20 Feb ? 20:28:30 28° NNE 20:28:30 28° NNE 20:30:47 10° N visible
20 Feb ? 22:05:47 15° NW 22:05:47 15° NW 22:06:43 10° NW visible
21 Feb ? 19:10:26 12° NE 19:10:26 12° NE 19:11:58 10° NNE visible
21 Feb ? 20:47:44 31° N 20:47:44 31° N 20:50:03 10° N visible
21 Feb ? 22:25:00 11° NW 22:25:00 11° NW 22:25:22 10° NW visible
22 Feb ? 19:29:40 16° NE 19:29:40 16° NE 19:31:55 10° NNE visible
22 Feb ? 21:06:57 31° NNW 21:06:57 31° NNW 21:09:14 10° NNW visible
23 Feb ? 19:48:54 22° NE 19:48:54 22° NE 19:51:31 10° N visible
23 Feb ? 21:26:10 28° NW 21:26:10 28° NW 21:28:21 10° NNW visible
